TimeEDT,TemperatureF,Dew PointF,Humidity,Sea Level PressureIn,VisibilityMPH,Wind Direction,Wind SpeedMPH,Gust SpeedMPH,PrecipitationIn,Events,Conditions,WindDirDegrees,DateUTC
12:52 AM,68.0,57.0,68,30.20,10.0,NE,3.5,-,N/A,,Clear,40,2013-06-22 04:52:00
1:52 AM,66.0,57.9,75,30.19,10.0,North,3.5,-,N/A,,Clear,360,2013-06-22 05:52:00
2:52 AM,63.0,59.0,87,30.19,10.0,North,3.5,-,N/A,,Clear,350,2013-06-22 06:52:00
3:52 AM,62.1,59.0,90,30.18,10.0,NNW,5.8,-,N/A,,Clear,340,2013-06-22 07:52:00
4:52 AM,62.1,59.0,90,30.19,10.0,North,6.9,-,N/A,,Clear,360,2013-06-22 08:52:00
5:52 AM,62.1,59.0,90,30.20,10.0,North,5.8,-,N/A,,Scattered Clouds,360,2013-06-22 09:52:00
6:17 AM,62.6,59.0,88,30.23,10.0,NNE,8.1,-,N/A,,Mostly Cloudy,20,2013-06-22 10:17:00
6:27 AM,64.4,60.8,88,30.23,10.0,North,9.2,-,N/A,,Mostly Cloudy,10,2013-06-22 10:27:00
6:40 AM,64.4,60.8,88,30.23,10.0,NNE,8.1,-,N/A,,Mostly Cloudy,30,2013-06-22 10:40:00
6:52 AM,64.9,61.0,87,30.21,10.0,North,8.1,-,N/A,,Mostly Cloudy,10,2013-06-22 10:52:00
7:52 AM,68.0,62.1,81,30.22,10.0,NNE,6.9,-,N/A,,Mostly Cloudy,30,2013-06-22 11:52:00
8:52 AM,71.1,66.0,84,30.22,10.0,North,8.1,-,N/A,,Scattered Clouds,350,2013-06-22 12:52:00
9:52 AM,75.0,66.0,73,30.20,10.0,NNE,4.6,-,N/A,,Scattered Clouds,20,2013-06-22 13:52:00
10:52 AM,78.1,66.0,66,30.21,10.0,NNE,8.1,-,N/A,,Mostly Cloudy,20,2013-06-22 14:52:00
11:52 AM,80.1,66.0,62,30.22,10.0,NNE,5.8,18.4,N/A,,Mostly Cloudy,20,2013-06-22 15:52:00
12:52 PM,80.1,66.9,64,30.21,10.0,Variable,5.8,-,N/A,,Mostly Cloudy,0,2013-06-22 16:52:00
1:52 PM,82.9,64.9,54,30.20,10.0,North,8.1,-,N/A,,Mostly Cloudy,10,2013-06-22 17:52:00
2:52 PM,82.9,66.0,56,30.18,10.0,NNE,5.8,-,N/A,,Mostly Cloudy,30,2013-06-22 18:52:00
3:52 PM,82.0,64.9,56,30.16,10.0,North,8.1,-,N/A,,Mostly Cloudy,360,2013-06-22 19:52:00
4:52 PM,84.9,64.0,49,30.13,10.0,NNE,5.8,-,N/A,,Mostly Cloudy,30,2013-06-22 20:52:00
5:52 PM,84.0,64.9,53,30.13,10.0,NNE,4.6,-,N/A,,Mostly Cloudy,30,2013-06-22 21:52:00
6:52 PM,82.9,64.9,54,30.12,10.0,NE,6.9,-,N/A,,Mostly Cloudy,50,2013-06-22 22:52:00
7:52 PM,82.0,64.0,54,30.12,10.0,NE,5.8,-,N/A,,Mostly Cloudy,50,2013-06-22 23:52:00
8:52 PM,79.0,66.9,66,30.12,10.0,SE,8.1,-,N/A,,Mostly Cloudy,130,2013-06-23 00:52:00
9:52 PM,78.1,68.0,71,30.14,10.0,SE,5.8,-,N/A,,Mostly Cloudy,140,2013-06-23 01:52:00
10:52 PM,78.1,68.0,71,30.15,10.0,East,5.8,-,N/A,,Overcast,100,2013-06-23 02:52:00
11:52 PM,75.0,68.0,79,30.16,10.0,Calm,Calm,-,N/A,,Overcast,0,2013-06-23 03:52:00